Location: Unspecified
(0.0000°N, 0.0000°E)
Time: 05:28:44
(UTC+00:00)

ISS - Visible Passes

Search period start: 31 January 2015 00:00
Search period end: 10 February 2015 00:00
Orbit: 400 x 408 km, 51.6° (Epoch: 30 January)

Date Brightness Start Highest point End Pass type
(mag) Time Alt. Az. Time Alt. Az. Time Alt. Az.
31 Jan -0.6 19:02:20 10° W 19:04:30 16° NW 19:06:35 10° NNW visible
02 Feb -3.4 05:42:45 10° NW 05:46:01 81° SW 05:49:18 10° SSE visible
03 Feb -1.8 04:52:28 23° NNE 04:53:42 32° NE 04:56:42 10° ESE visible
04 Feb -1.6 05:35:41 12° W 05:37:41 19° SW 05:40:04 10° S visible
05 Feb -2.4 04:46:07 39° S 04:46:07 39° S 04:48:28 10° SSE visible
